User: anonymous   Login
Location: Caltech
(34.1382°N, 118.1253°W)
Time: 16:26:09
(UTC-07:00)
Language:

Cosmos 1508 Rocket - Orbit

View from above orbital plane
View from above orbital plane
View from above satellite
View from above satellite

Ground track
Ground track

The orbit data is extracted from the following two-line orbital elements,

1 14484U 83111B   15205.93052686  .08845674 -13632-5  17840-3 0  9993
2 14484 082.7984 284.0558 0021915 241.5243 119.6463 16.44974174635216
Epoch (UTC): 24 July 2015 22:19:57
Eccentricity: 0.0021915
inclination: 82.7984°
perigee height: 138 km
apogee height: 167 km
right ascension of ascending node: 284.0558°
argument of perigee: 241.5243°
revolutions per day: 16.44974174
mean anomaly at epoch: 119.6463°
orbit number at epoch: 63521

The dashed part of the orbit path shows where the satellite is in the earth's shadow,  

DLR